星链-5685 (STARLINK-5685 )

导读 | 星芒AI

STARLINK-5685 是 SpaceX Starlink 项目中的一颗低轨通信卫星,属于第 14 批组网发射的卫星之一。该卫星于 2021 年 10 月 31 日由猎鹰 9 号火箭送入近地轨道,旨在为全球提供高速互联网服务。作为 Starlink 卫星群的一部分,STARLINK-5685 采用先进推进系统和激光通信技术,支持卫星间高速数据传输,提升网络稳定性和覆盖范围。该卫星运行在约 550 公里高度的轨道上,助力 SpaceX 实现全球宽带覆盖目标。

基本信息
目录编号:
55477
目录名称:
STARLINK-5685
国际标识:
2023-015AE
轨道中心:
EARTH
卫星名称:
星链-5685
卫星全名:
星链-5685 (STARLINK-5685 )
卫星状态:
在轨 (已飞行1053 天)
发射日期:
2023-02-02 UTC
国别 :
美国 (US)
星等 :
--
轨道信息
数据来源 国际轨道数据
星历时间: 2025-12-21T10:01:46+0800
12小时前
查看轨道信息
半长轴: 6937.227km
偏心率: 0.0001194
轨道倾角: 43.005°
近地点辐角 267.067°
升交点赤经 20.621°
平近点角 93.003°
近地点: 558.261km
远地点: 559.919km
周期: 95.838分钟
每日圈数: 15.025328
详细信息
固有亮度:
5
最大亮度:
2.5
卫星平台:
Starlink v1.5
覆盖范围:
全球
运营商:
太空探索技术公司
运营商所在国:
美国
制造商(研发单位):
太空探索技术公司
制造商所在国:
美国
使用方式:
暂无
卫星简介
星链(Starlink)计划是由太空探索技术公司(SpaceX)提出的一个巨型低轨卫星互联网星座项目,计划在2019年至2024年间在太空搭建由约1.2万颗卫星组成的“星链”网络,其中1584颗将部署在地球上空550千米处的近地轨道,并从2020年开始工作。该卫星仍在工作。
2D轨道图
3D轨道图
轨道高度分析图
轨道倾角分析图
轨道综合分析图
查看轨道综合分析图